WESTFORD NEEDLES, 3255

Orbit data source: Space-Track

WESTFORD NEEDLES, 3255 is space debris in LEO originally from a launch on Thu, 09 May 1963 UTC launched from the Air Force Western Test Range (AFWTR). Debris objects in space refer to the collection of defunct objects orbiting the Earth. Examples of debris include non-operational satellites, rocket bodies, and fragments generated from explosions, collisions, or faulty payload assembly.

Loading next visibility...
Identifier
3255, 1963-014BV
Orbit
LEO
Country
Flag of USUS
Related business
Manufacturer
Unknown
Mission
Spacecraft
Bus & Motor
Unknown
Mass
Unknown
Launch date (UTC)
1963-05-09 (62 years ago)
Launch vehicle
Unknown
Launch site
Air Force Western Test Range (AFWTR)
Object type
Payload
Rocket body
Debris
Shape & HBR
Unknown shape, 1.1 m
Radar Cross Section
Medium (>0.1 m² and <1 m²)

Expand to show TLE details & history
Last TLE update: 8 hours ago

TLE from 8 hours ago
0 WESTFORD NEEDLES
1 03255U 63014BV  25308.63653582  .00000183  00000-0  82652-1 0  9991
2 03255  87.3633 190.4591 0081787  59.8071 301.0855  8.66769341361964
Epoch: 2025-11-04T15:16Z
TLE epoch observation values (Epoch: 2025-11-04T15:16:36.694Z)
Latitude
Longitude
-82.8145°
Altitude
3,593.008 km
Speed
6.336 km/s
True Right ascension
12h 41m 50s
True Declination
0° 00' 00"
Sunlit
Object was in daylight at epoch
Visualization orbit readout
Latitude
Unknown
Longitude
Unknown
Altitude
Unknown
Speed
Unknown
Apparent Right ascension
Unknown
Apparent Declination
Unknown
Sunlit
N/A
Visualization observer readout
Local Sidereal Time
19:34:06
Azimuth
Unknown
Elevation
Unknown
Doppler factor
Unknown
Orbital elements
Apogee altitude
3,712.28 km
Perigee altitude
3,548.566 km
Semi-major axis
10,008.56 km
Eccentricity
0.00818
Inclination
87.3633°
RAAN
190.4591°
Arg. of periapsis
59.8071°
True anomaly
300.27864°
Mean anomaly
301.0855°
Eccentric anomaly
300.6825°
Mean motion
2.16763 °/min
Orbital period
166.08 mins
BSTAR
0.082652
Loading maneuver chart data...
Computing Atmospheric mass density...

Documentation

Showing up to 5 results
|